FW4325 Guayama PR US current weather conditions

sailwx.info

Wind from 063 at 6 knots gusting 12

Air temperature 25.0° C
Dewpoint 21.1° C

Last reported at 2019-Dec-13 00:46 UTC.
Time now 2019-Dec-13 02:15 UTC

Location: N 17°59' W 066°08'.
View on Google Maps.

See reports from other nearby stations

  
Tides and Currents Weather Stations Pressure Air Temp Water Temp Dewpoint Dewpoint Depression Visibility Wind Speed Wind Dir Waves Ship Positions
date/time (UTC)wind fromknots sea level pressurealtimeterstation pressurevisibilityair tempwater tempwave heightnotes
2019-Dec-13 00:46 063 6 gusting 12 25.0
2019-Dec-13 00:32 068 4 gusting 9 24.4
2019-Dec-13 00:17 069 6 gusting 12 24.4
2019-Dec-13 00:03 055 3 gusting 10 23.9
2019-Dec-12 23:46 039 5 gusting 12 23.9
2019-Dec-12 23:33 064 6 gusting 16 23.9
2019-Dec-12 23:17 092 12 gusting 22 25.6
2019-Dec-12 23:02 069 9 gusting 16 26.1
2019-Dec-12 22:48 038 6 gusting 17 26.1
2019-Dec-12 22:31 061 7 gusting 13 26.1
2019-Dec-12 22:16 049 7 gusting 17 26.1
2019-Dec-12 22:01 086 7 gusting 17 26.7
2019-Dec-12 21:46 088 8 gusting 20 26.7
2019-Dec-12 21:30 051 9 gusting 18 27.2
2019-Dec-12 21:15 119 7 gusting 13 27.8
2019-Dec-12 21:01 062 11 gusting 18 27.8
2019-Dec-12 20:46 065 5 gusting 18 28.3
2019-Dec-12 20:31 055 8 gusting 15 28.3
2019-Dec-12 20:16 109 10 gusting 19 28.3
2019-Dec-12 20:01 091 11 gusting 15 28.3
2019-Dec-12 19:46 084 7 gusting 16 28.9
2019-Dec-12 19:31 081 8 gusting 18 28.9
2019-Dec-12 19:15 088 9 gusting 13 28.9
2019-Dec-12 18:45 127 9 gusting 13 28.9
2019-Dec-12 18:31 130 7 gusting 16 28.3
2019-Dec-12 18:16 069 7 gusting 17 28.9
2019-Dec-12 18:01 090 5 gusting 14 28.9
2019-Dec-12 17:45 111 8 gusting 17 28.9
2019-Dec-12 17:30 082 8 gusting 16 28.3
2019-Dec-12 17:17 091 8 gusting 14 27.8
2019-Dec-12 17:00 084 10 gusting 16 27.2
2019-Dec-12 16:45 089 9 gusting 15 28.3
2019-Dec-12 16:30 086 11 gusting 19 28.3
2019-Dec-12 16:15 097 8 gusting 22 27.8
2019-Dec-12 16:00 085 11 gusting 22 28.9
2019-Dec-12 15:45 103 10 gusting 17 28.3
2019-Dec-12 15:30 057 10 gusting 20 28.3
2019-Dec-12 15:15 118 11 gusting 19 28.3
2019-Dec-12 15:00 057 6 gusting 18 28.3
2019-Dec-12 14:45 067 11 gusting 19 28.3
2019-Dec-12 14:30 075 10 gusting 17 28.3
2019-Dec-12 14:18 093 10 gusting 17 28.3
2019-Dec-12 14:02 103 12 gusting 19 28.3
2019-Dec-12 13:49 130 9 gusting 18 27.8
2019-Dec-12 13:32 082 6 gusting 16 27.8
2019-Dec-12 13:17 066 7 gusting 17 27.8
2019-Dec-12 13:02 046 9 gusting 18 27.2
2019-Dec-12 12:47 082 7 gusting 18 27.2
2019-Dec-12 12:32 089 10 gusting 19 27.2
2019-Dec-12 12:16 062 8 gusting 15 27.2
2019-Dec-12 12:01 074 8 gusting 12 26.7
2019-Dec-12 11:46 096 8 gusting 14 26.7
2019-Dec-12 11:30 032 6 gusting 13 26.1
2019-Dec-12 11:15 038 4 gusting 15 26.1
2019-Dec-12 11:00 083 8 gusting 17 25.6
2019-Dec-12 10:45 051 8 gusting 19 25.6
2019-Dec-12 10:30 067 12 gusting 19 25.6
2019-Dec-12 10:15 071 6 gusting 18 25.6
2019-Dec-12 10:00 088 4 gusting 14 25.6
2019-Dec-12 09:45 083 7 gusting 15 25.6
2019-Dec-12 09:32 097 7 gusting 12 25.6
2019-Dec-12 09:17 104 6 gusting 11 25.6
2019-Dec-12 09:04 078 5 gusting 12 25.6
2019-Dec-12 08:47 096 8 gusting 15 25.6
2019-Dec-12 08:32 078 6 gusting 12 25.0
2019-Dec-12 08:17 028 4 gusting 13 25.0
2019-Dec-12 08:02 055 2 gusting 12 25.0
2019-Dec-12 07:46 062 6 gusting 12 25.6
2019-Dec-12 07:32 069 6 gusting 12 25.0
2019-Dec-12 07:02 060 6 gusting 11 25.6
2019-Dec-12 06:46 074 4 gusting 8 25.0
2019-Dec-12 06:31 095 7 gusting 20 25.6
2019-Dec-12 06:15 088 4 gusting 9 26.1
2019-Dec-12 06:00 057 6 gusting 13 25.6
2019-Dec-12 05:45 089 7 gusting 13 25.6
2019-Dec-12 05:31 077 3 gusting 11 25.6
2019-Dec-12 05:15 029 6 gusting 11 25.6
2019-Dec-12 05:00 055 2 gusting 9 25.6
2019-Dec-12 04:45 078 4 gusting 15 25.6
2019-Dec-12 04:30 119 5 gusting 11 25.6
2019-Dec-12 04:15 067 7 gusting 15 25.6
2019-Dec-12 04:00 036 6 gusting 12 25.6
2019-Dec-12 03:45 078 6 gusting 13 25.6
2019-Dec-12 03:30 067 6 gusting 14 26.1
2019-Dec-12 03:17 066 8 gusting 16 26.1
2019-Dec-12 03:02 076 9 gusting 19 26.1
2019-Dec-12 02:47 081 9 gusting 14 26.1
2019-Dec-12 02:33 092 10 gusting 18 26.1
2019-Dec-12 02:18 143 6 gusting 13 26.1
2019-Dec-12 02:02 078 2 gusting 10 26.1
2019-Dec-12 01:47 102 6 gusting 13 26.1
2019-Dec-12 01:32 084 9 gusting 15 26.1
2019-Dec-12 01:16 092 5 gusting 13 26.1
2019-Dec-12 01:02 093 5 gusting 18 26.1
2019-Dec-12 00:46 080 7 gusting 14 26.1
2019-Dec-12 00:31 074 4 gusting 12 26.1
2019-Dec-12 00:17 036 10 gusting 15 26.1
2019-Dec-12 00:02 087 6 gusting 15 26.1
2019-Dec-11 23:47 061 7 gusting 19 26.1
2019-Dec-11 23:31 063 4 gusting 10 26.1
2019-Dec-11 23:16 067 5 gusting 13 26.1
2019-Dec-11 23:02 044 5 gusting 11 26.1
2019-Dec-11 22:47 057 8 gusting 15 26.7
2019-Dec-11 22:31 058 6 gusting 13 26.1
2019-Dec-11 22:16 056 4 gusting 11 26.7
2019-Dec-11 22:01 065 3 gusting 12 26.7
2019-Dec-11 21:46 051 6 gusting 16 26.7
2019-Dec-11 21:32 078 8 gusting 16 27.2
2019-Dec-11 21:17 092 4 gusting 13 27.8
2019-Dec-11 21:01 075 6 gusting 12 27.8
2019-Dec-11 20:45 095 7 gusting 15 28.3
2019-Dec-11 20:31 089 6 gusting 11 28.9
2019-Dec-11 20:16 105 6 gusting 14 28.3
2019-Dec-11 20:01 055 8 gusting 14 28.9
2019-Dec-11 19:33 057 6 gusting 18 28.9
2019-Dec-11 19:00 087 8 gusting 14 28.9
2019-Dec-11 18:45 074 8 gusting 17 28.9
2019-Dec-11 18:30 077 7 gusting 16 29.4
2019-Dec-11 18:15 039 7 gusting 16 30.0
2019-Dec-11 18:00 090 8 gusting 17 30.0
2019-Dec-11 17:45 093 6 gusting 13 30.0
2019-Dec-11 17:30 074 10 gusting 16 30.0
2019-Dec-11 17:16 084 8 gusting 18 30.0
2019-Dec-11 17:00 076 6 gusting 16 30.0
2019-Dec-11 16:47 090 6 gusting 14 30.0
2019-Dec-11 16:33 057 9 gusting 16 29.4
2019-Dec-11 16:16 084 8 gusting 14 29.4
2019-Dec-11 16:02 082 8 gusting 17 29.4
2019-Dec-11 15:46 090 8 gusting 16 30.0
2019-Dec-11 15:32 123 9 gusting 17 29.4
2019-Dec-11 15:16 110 8 gusting 15 29.4
2019-Dec-11 15:02 051 9 gusting 15 29.4
2019-Dec-11 14:46 067 6 gusting 13 29.4
2019-Dec-11 14:30 071 6 gusting 13 29.4
2019-Dec-11 14:16 088 10 gusting 18 28.9
2019-Dec-11 14:01 087 8 gusting 15 28.9
2019-Dec-11 13:45 092 6 gusting 13 28.3
2019-Dec-11 13:30 095 6 gusting 15 27.8
2019-Dec-11 13:15 094 4 gusting 13 27.8
2019-Dec-11 13:00 103 8 gusting 19 27.2
2019-Dec-11 12:45 100 9 gusting 15 27.2
2019-Dec-11 12:30 042 4 gusting 13 26.7
2019-Dec-11 12:15 063 6 gusting 15 26.1
2019-Dec-11 12:02 080 3 gusting 12 26.7
2019-Dec-11 11:46 086 6 gusting 11 26.1
2019-Dec-11 11:33 055 6 gusting 13 25.6
2019-Dec-11 11:16 050 4 gusting 8 25.0
2019-Dec-11 11:03 059 3 gusting 9 25.0
2019-Dec-11 10:49 031 8 gusting 14 25.6
2019-Dec-11 10:32 063 3 gusting 12 25.6
2019-Dec-11 10:16 068 5 gusting 12 25.6
2019-Dec-11 10:02 107 2 gusting 9 25.6
2019-Dec-11 09:46 070 6 gusting 15 25.6
2019-Dec-11 09:31 049 5 gusting 10 25.6
2019-Dec-11 09:16 061 2 gusting 10 25.6
2019-Dec-11 09:02 100 4 gusting 10 25.6
2019-Dec-11 08:46 094 4 gusting 10 25.6
2019-Dec-11 08:32 120 6 gusting 10 25.0
2019-Dec-11 08:16 072 3 gusting 10 25.6
2019-Dec-11 08:01 071 5 gusting 10 25.6
2019-Dec-11 07:46 078 6 gusting 13 25.6
2019-Dec-11 07:30 082 4 gusting 9 25.6
2019-Dec-11 07:17 080 5 gusting 12 26.1
2019-Dec-11 07:00 091 6 gusting 11 26.1
2019-Dec-11 06:46 057 6 gusting 10 25.6
2019-Dec-11 06:30 058 4 gusting 12 26.1
2019-Dec-11 06:15 066 8 gusting 16 26.1
2019-Dec-11 06:00 065 4 gusting 13 26.1
2019-Dec-11 05:48 063 7 gusting 13 26.1
2019-Dec-11 05:18 073 3 gusting 10 26.1
2019-Dec-11 05:02 076 7 gusting 13 26.1
2019-Dec-11 04:47 045 5 gusting 10 26.1
2019-Dec-11 04:33 067 6 gusting 13 26.1
2019-Dec-11 04:21 096 6 gusting 13 26.1
2019-Dec-11 04:02 090 7 gusting 14 26.1
2019-Dec-11 03:48 057 7 gusting 14 26.1
2019-Dec-11 03:34 074 8 gusting 13 26.1
2019-Dec-11 03:16 059 6 gusting 13 26.1
2019-Dec-11 03:01 071 6 gusting 13 26.7
2019-Dec-11 02:47 065 8 gusting 14 26.7
2019-Dec-11 02:31 092 5 gusting 13 26.7
2019-Dec-11 02:18 057 6 gusting 10 26.1
2019-Dec-11 02:02 081 6 gusting 12 26.1